Home > Weather > Mobile > Past weeks

Flag for USA Past Weather in Mobile, Alabama, USA — Yesterday and Last 2 Weeks

Now
76 °F

Clear.


Feels Like: 75 °F
Forecast: 77 / 91 °F
Wind: 3 mph from West

Location: Mobile Downtown Airport

Current Time: Jul 28, 2016 at 1:46:43 AM

Latest Report: Jul 28, 2016 at 12:53 AM


Visibility: 10 mi

Pressure: 30.04 "Hg

Humidity: 97%

Dew Point: 75 °F

Location of MobileLocation

Past Weather in Mobile — Graph

°F

Mobile Temperature Yesterday

Maximum temperature yesterday: 90 °F (at 2:53 PM)
Minimum temperature yesterday: 75 °F (at 3:53 AM)
Average temperature yesterday: 82 °F

High & Low Weather Summary for the Past Weeks

 TemperatureHumidityPressure
High94 °F (Jul 20, 1:53 PM)100% (Jul 14, 12:53 AM)30.26 "Hg (Jul 14, 12:53 AM)
Low71 °F (Jul 15, 3:53 AM)54% (Jul 20, 1:53 PM)29.93 "Hg (Jul 26, 2:53 AM)
Average82 °F83%30.08 "Hg
* Reported Jul 13 12:53 AM — Jul 28 12:53 AM, Mobile, Weather by CustomWeather, © 2016

Note: Actual official high and low records may vary slightly from our data, if they occured in-between our weather recording intervals... More about our weather records

Advertising

Mobile Weather History for the Previous 24 Hours

Scroll right to see more
 ConditionsComfort  
Time TempWeatherWind HumidityBarometerVisibility
12:53 AM
Thu, Jul 28
76 °FClear.3 mph97%30.04 "Hg10 mi
11:53 PM
Wed, Jul 27
76 °FClear.3 mph97%30.05 "Hg10 mi
10:53 PM78 °FClear.No wind90%30.04 "Hg10 mi
9:53 PM78 °FClear.3 mph93%30.04 "Hg10 mi
8:53 PM80 °FClear.No wind87%30.03 "Hg10 mi
7:53 PM81 °FPassing clouds.3 mph85%30.04 "Hg10 mi
6:53 PM83 °FScattered clouds.5 mph77%30.04 "Hg10 mi
5:53 PM85 °FSunny.8 mph68%30.04 "Hg10 mi
4:53 PM88 °FSunny.7 mph67%30.03 "Hg10 mi
3:53 PM86 °FBroken clouds.10 mph67%30.03 "Hg10 mi
2:53 PM90 °FPartly sunny.7 mph66%30.04 "Hg10 mi
1:53 PM89 °FPartly sunny.13 mph65%30.06 "Hg10 mi
12:53 PM89 °FScattered clouds.9 mph68%30.07 "Hg10 mi
11:53 AM86 °FBroken clouds.5 mph72%30.08 "Hg10 mi
10:53 AM87 °FScattered clouds.10 mph72%30.07 "Hg10 mi
9:53 AM86 °FBroken clouds.6 mph75%30.07 "Hg10 mi
8:53 AM85 °FPassing clouds.7 mph80%30.05 "Hg10 mi
7:53 AM80 °FPassing clouds.3 mph87%30.04 "Hg10 mi
6:53 AM78 °FClear.3 mph90%30.04 "Hg10 mi
5:53 AM75 °FClear.3 mph96%30.02 "Hg10 mi
4:53 AM75 °FClear.No wind96%30.01 "Hg10 mi
3:53 AM75 °FClear.No wind96%30.00 "Hg10 mi
2:53 AM77 °FClear.3 mph90%30.00 "Hg10 mi
1:53 AM77 °FClear.No wind94%30.01 "Hg10 mi
Weather by CustomWeather, © 2016

See weather overviewHow to use our weather pages